Time,TemperatureF,DewpointF,PressureIn,WindDirection,WindDirectionDegrees,WindSpeedMPH,WindSpeedGustMPH,Humidity,HourlyPrecipIn,Conditions,Clouds,dailyrainin,SoftwareType,DateUTC
2013-02-10 00:01:00,25.0,-99.9,30.88,South,184,8.0,15.0,-999,-99.99,,,-99.99,,2013-02-10 05:01:00,
2013-02-10 00:11:00,25.0,-99.9,30.18,South,184,8.0,15.0,-999,-99.99,,,-99.99,,2013-02-10 05:11:00,
2013-02-10 00:23:00,25.0,-99.9,30.18,South,184,8.0,15.0,-999,-99.99,,,-99.99,,2013-02-10 05:23:00,
2013-02-10 00:32:00,25.0,-99.9,30.18,South,184,8.0,15.0,-999,-99.99,,,-99.99,,2013-02-10 05:32:00,
2013-02-10 01:02:00,26.0,-99.9,30.88,South,175,6.0,15.0,-999,-99.99,,,-99.99,,2013-02-10 06:02:00,
2013-02-10 01:11:00,26.0,-99.9,30.18,South,175,6.0,15.0,-999,-99.99,,,-99.99,,2013-02-10 06:11:00,
2013-02-10 01:22:00,26.0,-99.9,30.87,South,172,7.0,19.0,-999,-99.99,,,-99.99,,2013-02-10 06:22:00,
2013-02-10 01:32:00,26.0,-99.9,30.17,South,172,7.0,19.0,-999,-99.99,,,-99.99,,2013-02-10 06:32:00,
2013-02-10 01:42:00,26.0,-99.9,30.17,South,172,7.0,19.0,-999,-99.99,,,-99.99,,2013-02-10 06:42:00,
2013-02-10 01:52:00,26.0,-99.9,30.17,South,172,7.0,19.0,-999,-99.99,,,-99.99,,2013-02-10 06:52:00,
2013-02-10 02:01:00,26.0,-99.9,30.87,SSE,157,9.0,15.0,-999,-99.99,,,-99.99,,2013-02-10 07:01:00,
2013-02-10 02:11:00,26.0,-99.9,30.17,SSE,157,9.0,15.0,-999,-99.99,,,-99.99,,2013-02-10 07:11:00,
2013-02-10 02:21:00,25.0,-99.9,30.85,SSE,165,8.0,17.0,-999,-99.99,,,-99.99,,2013-02-10 07:21:00,
2013-02-10 02:32:00,25.0,-99.9,30.15,SSE,165,8.0,17.0,-999,-99.99,,,-99.99,,2013-02-10 07:32:00,
2013-02-10 02:42:00,25.0,-99.9,30.85,SSE,165,8.0,17.0,-999,-99.99,,,-99.99,,2013-02-10 07:42:00,
2013-02-10 02:52:00,25.0,-99.9,30.15,SSE,165,8.0,17.0,-999,-99.99,,,-99.99,,2013-02-10 07:52:00,
2013-02-10 03:01:00,25.0,-99.9,30.84,SSE,162,11.0,20.0,-999,-99.99,,,-99.99,,2013-02-10 08:01:00,
2013-02-10 03:11:00,25.0,-99.9,30.14,SSE,162,11.0,20.0,-999,-99.99,,,-99.99,,2013-02-10 08:11:00,
2013-02-10 03:21:00,25.0,-99.9,30.14,SSE,162,11.0,20.0,-999,-99.99,,,-99.99,,2013-02-10 08:21:00,
2013-02-10 03:32:00,25.0,-99.9,30.84,SSE,167,7.0,20.0,-999,-99.99,,,-99.99,,2013-02-10 08:32:00,
2013-02-10 03:43:00,25.0,-99.9,30.14,SSE,167,7.0,20.0,-999,-99.99,,,-99.99,,2013-02-10 08:43:00,
2013-02-10 03:52:00,25.0,-99.9,30.14,SSE,167,7.0,20.0,-999,-99.99,,,-99.99,,2013-02-10 08:52:00,
2013-02-10 04:02:00,25.0,-99.9,30.14,South,175,11.0,18.0,-999,-99.99,,,-99.99,,2013-02-10 09:02:00,
2013-02-10 04:11:00,25.0,-99.9,30.14,South,175,11.0,18.0,-999,-99.99,,,-99.99,,2013-02-10 09:11:00,
2013-02-10 04:21:00,25.0,-99.9,30.84,SSE,165,7.0,19.0,-999,-99.99,,,-99.99,,2013-02-10 09:21:00,
2013-02-10 04:32:00,25.0,-99.9,30.14,SSE,165,7.0,19.0,-999,-99.99,,,-99.99,,2013-02-10 09:32:00,
2013-02-10 04:42:00,25.0,-99.9,30.14,SSE,165,7.0,19.0,-999,-99.99,,,-99.99,,2013-02-10 09:42:00,
2013-02-10 04:52:00,25.0,-99.9,30.84,SSE,165,7.0,19.0,-999,-99.99,,,-99.99,,2013-02-10 09:52:00,
2013-02-10 05:01:00,25.0,-99.9,30.83,SSE,161,11.0,20.0,-999,-99.99,,,-99.99,,2013-02-10 10:01:00,
2013-02-10 05:11:00,25.0,-99.9,30.13,SSE,161,11.0,20.0,-999,-99.99,,,-99.99,,2013-02-10 10:11:00,
2013-02-10 05:21:00,25.0,-99.9,30.82,South,176,8.0,21.0,-999,-99.99,,,-99.99,,2013-02-10 10:21:00,
2013-02-10 05:32:00,25.0,-99.9,30.82,South,176,8.0,21.0,-999,-99.99,,,-99.99,,2013-02-10 10:32:00,
2013-02-10 05:42:00,25.0,-99.9,30.82,South,176,8.0,21.0,-999,-99.99,,,-99.99,,2013-02-10 10:42:00,
2013-02-10 05:52:00,25.0,-99.9,30.12,South,176,8.0,21.0,-999,-99.99,,,-99.99,,2013-02-10 10:52:00,
2013-02-10 06:01:00,25.0,-99.9,30.82,SSE,152,11.0,17.0,-999,-99.99,,,-99.99,,2013-02-10 11:01:00,
2013-02-10 06:11:00,25.0,-99.9,30.12,SSE,152,11.0,17.0,-999,-99.99,,,-99.99,,2013-02-10 11:11:00,
2013-02-10 06:22:00,25.0,-99.9,30.12,SSE,152,11.0,17.0,-999,-99.99,,,-99.99,,2013-02-10 11:22:00,
2013-02-10 06:32:00,24.0,-99.9,30.82,SSE,156,9.0,21.0,-999,-99.99,,,-99.99,,2013-02-10 11:32:00,
2013-02-10 06:42:00,24.0,-99.9,30.12,SSE,156,9.0,21.0,-999,-99.99,,,-99.99,,2013-02-10 11:42:00,
2013-02-10 06:52:00,24.0,-99.9,30.82,SSE,156,9.0,21.0,-999,-99.99,,,-99.99,,2013-02-10 11:52:00,
2013-02-10 07:02:00,24.0,-99.9,30.82,SSE,153,6.0,18.0,-999,-99.99,,,-99.99,,2013-02-10 12:02:00,
2013-02-10 07:12:00,24.0,-99.9,30.12,SSE,153,6.0,18.0,-999,-99.99,,,-99.99,,2013-02-10 12:12:00,
2013-02-10 07:22:00,24.0,-99.9,30.12,SSE,153,6.0,18.0,-999,-99.99,,,-99.99,,2013-02-10 12:22:00,
2013-02-10 07:32:00,24.0,-99.9,30.81,SSE,165,9.0,20.0,-999,-99.99,,,-99.99,,2013-02-10 12:32:00,
2013-02-10 07:40:00,24.0,-99.9,30.12,SSE,157,8.0,15.0,-999,-99.99,,,-99.99,,2013-02-10 12:40:00,
2013-02-10 07:42:00,24.0,-99.9,30.81,SSE,165,9.0,20.0,-999,-99.99,,,-99.99,,2013-02-10 12:42:00,
2013-02-10 07:52:00,24.0,-99.9,30.11,SSE,165,9.0,20.0,-999,-99.99,,,-99.99,,2013-02-10 12:52:00,
2013-02-10 08:02:00,24.0,-99.9,30.82,SSE,157,8.0,15.0,-999,-99.99,,,-99.99,,2013-02-10 13:02:00,
2013-02-10 08:12:00,24.0,-99.9,30.12,SSE,157,8.0,15.0,-999,-99.99,,,-99.99,,2013-02-10 13:12:00,
2013-02-10 08:21:00,24.0,-99.9,30.12,SSE,157,8.0,15.0,-999,-99.99,,,-99.99,,2013-02-10 13:21:00,
2013-02-10 08:32:00,24.0,-99.9,30.12,SSE,157,8.0,15.0,-999,-99.99,,,-99.99,,2013-02-10 13:32:00,
2013-02-10 09:02:00,24.0,-99.9,30.79,South,172,6.0,14.0,-999,-99.99,,,-99.99,,2013-02-10 14:02:00,
2013-02-10 09:11:00,24.0,-99.9,30.09,South,172,6.0,14.0,-999,-99.99,,,-99.99,,2013-02-10 14:11:00,
2013-02-10 09:22:00,24.0,-99.9,30.09,South,172,6.0,14.0,-999,-99.99,,,-99.99,,2013-02-10 14:22:00,
2013-02-10 09:32:00,25.0,-99.9,30.78,SE,134,4.0,20.0,-999,-99.99,,,-99.99,,2013-02-10 14:32:00,
2013-02-10 09:42:00,25.0,-99.9,30.08,SE,134,4.0,20.0,-999,-99.99,,,-99.99,,2013-02-10 14:42:00,
2013-02-10 09:52:00,25.0,-99.9,30.78,SE,134,4.0,20.0,-999,-99.99,,,-99.99,,2013-02-10 14:52:00,
2013-02-10 10:02:00,26.0,-99.9,30.08,SSE,148,9.0,15.0,-999,-99.99,,,-99.99,,2013-02-10 15:02:00,
2013-02-10 10:12:00,26.0,-99.9,30.06,SSE,148,9.0,15.0,-999,-99.99,,,-99.99,,2013-02-10 15:12:00,
2013-02-10 10:22:00,26.0,-99.9,30.06,SSE,148,9.0,15.0,-999,-99.99,,,-99.99,,2013-02-10 15:22:00,
2013-02-10 10:32:00,27.0,-99.9,30.74,SSE,153,12.0,20.0,-999,-99.99,,,-99.99,,2013-02-10 15:32:00,
2013-02-10 10:42:00,27.0,-99.9,-100.00,SSE,153,12.0,20.0,-999,-99.99,,,-99.99,,2013-02-10 15:42:00,
2013-02-10 10:52:00,27.0,-99.9,30.74,SSE,153,12.0,20.0,-999,-99.99,,,-99.99,,2013-02-10 15:52:00,
2013-02-10 11:02:00,29.0,-99.9,30.70,SE,145,6.0,15.0,-999,-99.99,,,-99.99,,2013-02-10 16:02:00,
2013-02-10 11:12:00,29.0,-99.9,30.00,SE,145,6.0,15.0,-999,-99.99,,,-99.99,,2013-02-10 16:12:00,
2013-02-10 11:22:00,29.0,-99.9,30.00,SE,145,6.0,15.0,-999,-99.99,,,-99.99,,2013-02-10 16:22:00,
2013-02-10 11:32:00,29.0,-99.9,30.70,SSE,157,12.0,21.0,-999,-99.99,,,-99.99,,2013-02-10 16:32:00,
2013-02-10 11:42:00,29.0,-99.9,30.00,SSE,157,12.0,21.0,-999,-99.99,,,-99.99,,2013-02-10 16:42:00,
2013-02-10 11:52:00,29.0,-99.9,30.00,SSE,157,12.0,21.0,-999,-99.99,,,-99.99,,2013-02-10 16:52:00,
2013-02-10 12:02:00,31.0,-99.9,30.70,SE,140,8.0,16.0,-999,-99.99,,,-99.99,,2013-02-10 17:02:00,
2013-02-10 12:12:00,31.0,-99.9,30.00,SE,140,8.0,16.0,-999,-99.99,,,-99.99,,2013-02-10 17:12:00,
2013-02-10 12:22:00,31.0,-99.9,30.00,SE,140,8.0,16.0,-999,-99.99,,,-99.99,,2013-02-10 17:22:00,
2013-02-10 12:32:00,31.0,-99.9,30.69,SE,139,6.0,18.0,-999,-99.99,,,-99.99,,2013-02-10 17:32:00,
2013-02-10 12:42:00,31.0,-99.9,29.99,SE,139,6.0,18.0,-999,-99.99,,,-99.99,,2013-02-10 17:42:00,
2013-02-10 12:53:00,31.0,-99.9,30.69,SE,139,6.0,18.0,-999,-99.99,,,-99.99,,2013-02-10 17:53:00,
2013-02-10 13:02:00,33.0,-99.9,30.65,SE,126,5.0,14.0,-999,-99.99,,,-99.99,,2013-02-10 18:02:00,
2013-02-10 13:12:00,33.0,-99.9,29.95,SE,126,5.0,14.0,-999,-99.99,,,-99.99,,2013-02-10 18:12:00,
2013-02-10 13:22:00,34.0,-99.9,30.64,ESE,121,3.0,16.0,-999,-99.99,,,-99.99,,2013-02-10 18:22:00,
2013-02-10 13:32:00,34.0,-99.9,30.64,ESE,121,3.0,16.0,-999,-99.99,,,-99.99,,2013-02-10 18:32:00,
2013-02-10 13:40:00,34.0,-99.9,29.91,ESE,102,4.0,11.0,-999,-99.99,,,-99.99,,2013-02-10 18:40:00,
2013-02-10 13:42:00,34.0,-99.9,29.94,ESE,121,3.0,16.0,-999,-99.99,,,-99.99,,2013-02-10 18:42:00,
2013-02-10 13:52:00,34.0,-99.9,30.64,ESE,121,3.0,16.0,-999,-99.99,,,-99.99,,2013-02-10 18:52:00,
2013-02-10 14:02:00,34.0,-99.9,30.61,ESE,102,4.0,11.0,-999,-99.99,,,-99.99,,2013-02-10 19:02:00,
2013-02-10 14:12:00,34.0,-99.9,29.91,ESE,102,4.0,11.0,-999,-99.99,,,-99.99,,2013-02-10 19:12:00,
2013-02-10 14:22:00,34.0,-99.9,29.91,ESE,102,4.0,11.0,-999,-99.99,,,-99.99,,2013-02-10 19:22:00,
2013-02-10 14:32:00,34.0,-99.9,29.91,ESE,102,4.0,11.0,-999,-99.99,,,-99.99,,2013-02-10 19:32:00,
2013-02-10 15:02:00,36.0,-99.9,30.57,SE,138,6.0,15.0,-999,-99.99,,,-99.99,,2013-02-10 20:02:00,
2013-02-10 15:12:00,36.0,-99.9,29.87,SE,138,6.0,15.0,-999,-99.99,,,-99.99,,2013-02-10 20:12:00,
2013-02-10 15:22:00,35.0,-99.9,30.58,SE,131,8.0,13.0,-999,-99.99,,,-99.99,,2013-02-10 20:22:00,
2013-02-10 15:32:00,35.0,-99.9,30.58,SE,131,8.0,13.0,-999,-99.99,,,-99.99,,2013-02-10 20:32:00,
2013-02-10 15:42:00,35.0,-99.9,29.88,SE,131,8.0,13.0,-999,-99.99,,,-99.99,,2013-02-10 20:42:00,
2013-02-10 15:53:00,35.0,-99.9,29.88,SE,131,8.0,13.0,-999,-99.99,,,-99.99,,2013-02-10 20:53:00,
2013-02-10 16:03:00,36.0,-99.9,30.51,SE,126,6.0,12.0,-999,-99.99,,,-99.99,,2013-02-10 21:03:00,
2013-02-10 16:12:00,36.0,-99.9,29.82,SE,126,6.0,12.0,-999,-99.99,,,-99.99,,2013-02-10 21:12:00,
2013-02-10 16:22:00,36.0,-99.9,29.82,SE,126,6.0,12.0,-999,-99.99,,,-99.99,,2013-02-10 21:22:00,
2013-02-10 16:32:00,36.0,-99.9,29.83,ESE,114,6.0,16.0,-999,-99.99,,,-99.99,,2013-02-10 21:32:00,
2013-02-10 16:42:00,37.0,-99.9,30.47,SE,124,5.0,12.0,-999,-99.99,,,-99.99,,2013-02-10 21:42:00,
2013-02-10 16:52:00,37.0,-99.9,30.47,SE,124,5.0,12.0,-999,-99.99,,,-99.99,,2013-02-10 21:52:00,
2013-02-10 17:02:00,37.0,-99.9,30.44,SE,136,9.0,17.0,-999,-99.99,,,-99.99,,2013-02-10 22:02:00,
2013-02-10 17:12:00,37.0,-99.9,29.75,SE,136,9.0,17.0,-999,-99.99,,,-99.99,,2013-02-10 22:12:00,
2013-02-10 17:22:00,37.0,-99.9,29.75,SE,136,9.0,17.0,-999,-99.99,,,-99.99,,2013-02-10 22:22:00,
2013-02-10 17:32:00,37.0,-99.9,30.47,SE,124,5.0,12.0,-999,-99.99,,,-99.99,,2013-02-10 22:32:00,
2013-02-10 17:42:00,37.0,-99.9,29.78,SE,124,5.0,12.0,-999,-99.99,,,-99.99,,2013-02-10 22:42:00,
2013-02-10 17:53:00,37.0,-99.9,29.78,SE,124,5.0,12.0,-999,-99.99,,,-99.99,,2013-02-10 22:53:00,
2013-02-10 18:02:00,35.0,-99.9,30.39,SE,141,9.0,18.0,-999,-99.99,,,-99.99,,2013-02-10 23:02:00,
2013-02-10 18:12:00,36.0,-99.9,29.71,SE,132,12.0,18.0,-999,-99.99,,,-99.99,,2013-02-10 23:12:00,
2013-02-10 18:22:00,36.0,-99.9,30.40,SE,132,12.0,18.0,-999,-99.99,,,-99.99,,2013-02-10 23:22:00,
2013-02-10 18:32:00,36.0,-99.9,29.71,SE,132,12.0,18.0,-999,-99.99,,,-99.99,,2013-02-10 23:32:00,
2013-02-10 18:42:00,34.0,-99.9,30.37,SE,146,7.0,23.0,-999,-99.99,,,-99.99,,2013-02-10 23:42:00,
2013-02-10 18:52:00,34.0,-99.9,29.68,SE,146,7.0,23.0,-999,-99.99,,,-99.99,,2013-02-10 23:52:00,
2013-02-10 19:02:00,34.0,-99.9,30.36,SSE,150,6.0,16.0,-999,-99.99,,,-99.99,,2013-02-11 00:02:00,
2013-02-10 19:11:00,34.0,-99.9,29.67,SSE,150,6.0,16.0,-999,-99.99,,,-99.99,,2013-02-11 00:11:00,
2013-02-10 19:22:00,34.0,-99.9,29.67,SSE,150,6.0,16.0,-999,-99.99,,,-99.99,,2013-02-11 00:22:00,
2013-02-10 19:32:00,34.0,-99.9,30.37,SE,146,7.0,23.0,-999,-99.99,,,-99.99,,2013-02-11 00:32:00,
2013-02-10 19:42:00,34.0,-99.9,29.68,SE,146,7.0,23.0,-999,-99.99,,,-99.99,,2013-02-11 00:42:00,
2013-02-10 19:52:00,34.0,-99.9,29.68,SE,146,7.0,23.0,-999,-99.99,,,-99.99,,2013-02-11 00:52:00,
2013-02-10 20:02:00,34.0,-99.9,30.33,SSE,150,10.0,20.0,-999,-99.99,,,-99.99,,2013-02-11 01:02:00,
2013-02-10 20:11:00,34.0,-99.9,29.64,SSE,150,10.0,20.0,-999,-99.99,,,-99.99,,2013-02-11 01:11:00,
2013-02-10 20:22:00,34.0,-99.9,30.33,SSE,150,10.0,20.0,-999,-99.99,,,-99.99,,2013-02-11 01:22:00,
2013-02-10 20:32:00,34.0,-99.9,30.33,SSE,150,10.0,20.0,-999,-99.99,,,-99.99,,2013-02-11 01:32:00,
2013-02-10 20:42:00,34.0,-99.9,-100.00,SSE,150,10.0,20.0,-999,-99.99,,,-99.99,,2013-02-11 01:42:00,
2013-02-10 20:52:00,34.0,-99.9,30.33,SSE,150,10.0,20.0,-999,-99.99,,,-99.99,,2013-02-11 01:52:00,
2013-02-10 21:01:00,34.0,-99.9,29.64,SSE,149,11.0,19.0,-999,-99.99,,,-99.99,,2013-02-11 02:01:00,
2013-02-10 21:11:00,34.0,-99.9,29.62,SSE,149,11.0,19.0,-999,-99.99,,,-99.99,,2013-02-11 02:11:00,
2013-02-10 21:21:00,34.0,-99.9,30.30,SSE,160,7.0,25.0,-999,-99.99,,,-99.99,,2013-02-11 02:21:00,
2013-02-10 21:32:00,34.0,-99.9,29.61,SSE,160,7.0,25.0,-999,-99.99,,,-99.99,,2013-02-11 02:32:00,
2013-02-10 21:42:00,34.0,-99.9,29.61,SSE,160,7.0,25.0,-999,-99.99,,,-99.99,,2013-02-11 02:42:00,
2013-02-10 21:52:00,34.0,-99.9,29.61,SSE,160,7.0,25.0,-999,-99.99,,,-99.99,,2013-02-11 02:52:00,
2013-02-10 22:02:00,34.0,-99.9,29.61,SSE,167,11.0,21.0,-999,-99.99,,,-99.99,,2013-02-11 03:02:00,
2013-02-10 22:11:00,34.0,-99.9,29.58,SSE,167,11.0,21.0,-999,-99.99,,,-99.99,,2013-02-11 03:11:00,
2013-02-10 22:22:00,34.0,-99.9,30.26,South,175,9.0,23.0,-999,-99.99,,,-99.99,,2013-02-11 03:22:00,
2013-02-10 22:32:00,34.0,-99.9,29.57,South,175,9.0,23.0,-999,-99.99,,,-99.99,,2013-02-11 03:32:00,
2013-02-10 22:42:00,34.0,-99.9,29.57,South,175,9.0,23.0,-999,-99.99,,,-99.99,,2013-02-11 03:42:00,
2013-02-10 22:52:00,34.0,-99.9,29.57,South,175,9.0,23.0,-999,-99.99,,,-99.99,,2013-02-11 03:52:00,
2013-02-10 23:02:00,35.0,-99.9,30.23,SSE,156,9.0,21.0,-999,-99.99,,,-99.99,,2013-02-11 04:02:00,
2013-02-10 23:11:00,35.0,-99.9,29.54,SSE,156,9.0,21.0,-999,-99.99,,,-99.99,,2013-02-11 04:11:00,
2013-02-10 23:22:00,35.0,-99.9,29.54,SSE,156,9.0,21.0,-999,-99.99,,,-99.99,,2013-02-11 04:22:00,
2013-02-10 23:32:00,35.0,-99.9,29.54,SSE,156,9.0,21.0,-999,-99.99,,,-99.99,,2013-02-11 04:32:00,
2013-02-10 23:42:00,36.0,-99.9,30.20,South,171,9.0,23.0,-999,-99.99,,,-99.99,,2013-02-11 04:42:00,
2013-02-10 23:52:00,36.0,-99.9,29.51,South,171,9.0,23.0,-999,-99.99,,,-99.99,,2013-02-11 04:52:00,